Showing default

SAPPHIRE, 39088

Orbit data source: Space-Track

SAPPHIRE, 39088 is a Canadian payload satellite in SSO that was launched on Mon, 25 Feb 2013 UTC via a PSLV launch vehicle from the Sirharikota (SRI). Payload-class satellites include a variety of spacecraft equipped with specific instruments for various scientific and technological missions. These include communications satellites like Starlink; space stations such as the ISS; scientific satellites like the Hubble; Earth observation satellites from companies like Planet Labs, Umbra, and HawkEye 360; GPS; miniature CubeSats for education and research; and military/defense satellites.

Loading next visibility...
Identifier
39088, 2013-009C
Orbit
SSO
Country
Flag of CACA
Related business
Manufacturer
SSTLA/MDABC
Mission
Operational Civil Early Warn
Bus & Motor
SSTL-150, Unknown motor
Mass
148 kg wet, 148 kg dry
Launch date (UTC)
2013-02-25 (13 years ago)
Launch vehicle
PSLV
Launch site
Sirharikota (SRI)
Object type
Payload
Rocket body
Debris
Shape & HBR
Box, 0.3 m
Radar Cross Section
0.375 m², Medium (>0.1 m² and < 1m²)

Expand to show TLE details & history
Last TLE update: 22 hours ago

TLE from 22 hours ago
0 SAPPHIRE
1 39088U 13009C   26094.47272508  .00000241  00000-0  99030-4 0  9999
2 39088  98.4241 275.6832 0012331 107.1589 253.0948 14.35220385686006
Epoch: 2026-04-04T11:20Z
TLE epoch observation values (Epoch: 2026-04-04T11:20:43.446Z)
Latitude
-0.00004°
Longitude
-87.28982°
Altitude
779.854 km
Speed
7.463 km/s
True Right ascension
18h 22m 43s
True Declination
0° 00' 00"
Sunlit
Object was in daylight at epoch
Visualization orbit readout
Latitude
Unknown
Longitude
Unknown
Altitude
Unknown
Speed
Unknown
Apparent Right ascension
Unknown
Apparent Declination
Unknown
Sunlit
N/A
Visualization observer readout
Local Sidereal Time
14:59:19
Azimuth
Unknown
Elevation
Unknown
Doppler factor
Unknown
Orbital elements
Apogee altitude
780.275 km
Perigee altitude
762.643 km
Semi-major axis
7,149.596 km
Eccentricity
0.00123
Inclination
98.4241°
RAAN
275.6832°
Arg. of periapsis
107.1589°
True anomaly
252.95966°
Mean anomaly
253.0948°
Eccentric anomaly
253.02723°
Mean motion
3.59022 °/min
Orbital period
100.27 mins
BSTAR
0.00009903
Loading maneuver chart data...
Computing Atmospheric mass density...
Loading historical data...
Loading historical data...
Loading historical data...
Loading historical data...
Loading historical data...
Loading historical data...
Loading historical data...

Documentation

Showing up to 5 results
|